Terminal Aerodrome Forecast
Issued by NWS

Home | Current Version | Previous Version | Text Only | Print | Product List | Glossary On
Versions: 1 2 3 4 5 6 7 8 9 10 11 12 13 14 15 16 17 18 19 20 21 22
000
FTUS46 KOTX 230748 AAA
TAFMWH
TAF AMD
KMWH 230748Z 2308/2406 00000KT P6SM BCFG FEW001
     FM230900 33007KT P6SM SKC
     FM231800 34005KT P6SM SKC=

USA.gov is the U.S. government's official web portal to all federal, state and local government web resources and services.